COSMOS 2251 DEB, 38068

Orbit data source: Space-Track

COSMOS 2251 DEB, 38068 is space debris in LEO originally from a launch on Wed, 16 Jun 1993 UTC launched from the Plesetsk Missile And Space Complex (PKMTR). The debris from Iridium 33, an American commercial communications satellite, has been tracked extensively since its accidental collision with the defunct Russian satellite Cosmos 2251 in 2009. This event, occurring at high speed in low Earth orbit (LEO), generated thousands of pieces of space debris, significantly increasing the risk of further collisions. The Iridium 33 debris cloud has impacted space traffic management and orbital debris mitigation strategies, making it a subject of ongoing study in space situational awareness.

Loading next visibility...
Identifier
38068, 1993-036BSA
Orbit
LEO
Country
Flag of CISCIS
Related business
Manufacturer
Unknown
Mission
Spacecraft
Bus & Motor
Unknown
Mass
Unknown
Launch date (UTC)
1993-06-16 (32 years ago)
Launch vehicle
Unknown
Launch site
Plesetsk Missile And Space Complex (PKMTR)
Object type
Payload
Rocket body
Debris
Shape & HBR
Unknown shape, 0.1 m
Radar Cross Section
Small (<0.1 m²)

Expand to show TLE details & history
Last TLE update: 4 days ago

TLE from 4 days ago
0 COSMOS 2251 DEB
1 38068U 93036BSA 25296.28848596  .00001165  00000-0  40940-3 0  9993
2 38068  74.0234  40.9268 0025139 145.7480 214.5300 14.35884674659224
Epoch: 2025-10-23T06:55Z
TLE epoch observation values (Epoch: 2025-10-23T06:55:25.186Z)
Latitude
-0.00009°
Longitude
-94.87806°
Altitude
789.564 km
Speed
7.451 km/s
True Right ascension
02h 43m 42s
True Declination
0° 00' 00"
Sunlit
Object was in full shadow at epoch
Visualization orbit readout
Latitude
Unknown
Longitude
Unknown
Altitude
Unknown
Speed
Unknown
Apparent Right ascension
Unknown
Apparent Declination
Unknown
Sunlit
N/A
Visualization observer readout
Local Sidereal Time
06:06:21
Azimuth
Unknown
Elevation
Unknown
Doppler factor
Unknown
Orbital elements
Apogee altitude
787.722 km
Perigee altitude
751.784 km
Semi-major axis
7,147.89 km
Eccentricity
0.00251
Inclination
74.0234°
RAAN
40.9268°
Arg. of periapsis
145.748°
True anomaly
214.36713°
Mean anomaly
214.53°
Eccentric anomaly
214.44852°
Mean motion
3.5915 °/min
Orbital period
100.24 mins
BSTAR
0.0004094
Loading maneuver chart data...
Computing Atmospheric mass density...

Documentation

Showing up to 5 results
|